| time (UTC) | temp F | wind direction | speed MPH | gust MPH | rain 1hr in | rain 24hr in | rain mn in | humidity % | barometer mb |
| 20260503183342 | 61 | 171 | 3.0 | 7.0 | 0.00 | 0.00 | 0.00 | 64 | 1011.0 |
| 20260503180330 | 60 | 271 | 1.0 | 5.0 | 0.00 | 0.00 | 0.00 | 69 | 1011.1 |
| 20260503173334 | 58 | 244 | 4.0 | 9.0 | 0.00 | 0.00 | 0.00 | 72 | 1011.0 |
| 20260503170326 | 60 | 222 | 2.0 | 6.0 | 0.00 | 0.00 | 0.00 | 71 | 1010.9 |
| 20260503150330 | 57 | 360 | 3.0 | 5.0 | 0.00 | 0.00 | 0.00 | 74 | 1010.4 |
| 20260503130325 | 56 | 360 | 5.0 | 6.0 | 0.00 | 0.00 | 0.00 | 75 | 1008.9 |
| 20260503110339 | 56 | 360 | 0.0 | 1.0 | 0.00 | 0.00 | 0.00 | 76 | 1009.1 |
| 20260503090317 | 56 | 269 | 0.0 | 2.0 | 0.00 | 0.00 | 0.00 | 76 | 1009.4 |
| 20260503080357 | 56 | 360 | 1.0 | 2.0 | 0.00 | 0.00 | 0.00 | 76 | 1009.8 |
| 20260503070344 | 57 | 360 | 1.0 | 3.0 | 0.00 | 0.00 | 0.00 | 76 | 1009.9 |
| 20260503053332 | 57 | 360 | 2.0 | 7.0 | 0.00 | 0.00 | 0.00 | 75 | 1010.4 |
| 20260503050354 | 57 | 360 | 3.0 | 8.0 | 0.00 | 0.00 | 0.00 | 75 | 1010.3 |
| 20260503043334 | 57 | 360 | 2.0 | 7.0 | 0.00 | 0.00 | 0.00 | 74 | 1010.0 |
| 20260503040357 | 57 | 360 | 2.0 | 7.0 | 0.00 | 0.00 | 0.00 | 74 | 1009.9 |
| 20260503033335 | 58 | 360 | 4.0 | 10.0 | 0.00 | 0.00 | 0.00 | 73 | 1009.5 |
| 20260503030333 | 58 | 360 | 2.0 | 8.0 | 0.00 | 0.00 | 0.00 | 72 | 1009.3 |
| 20260503023417 | 59 | 360 | 4.0 | 8.0 | 0.00 | 0.00 | 0.00 | 72 | 1008.9 |
| 20260503020409 | 60 | 360 | 6.0 | 10.0 | 0.00 | 0.00 | 0.00 | 71 | 1008.9 |
| 20260503013351 | 61 | 339 | 4.0 | 10.0 | 0.00 | 0.00 | 0.00 | 71 | 1009.0 |
| 20260503010346 | 62 | 5 | 5.0 | 15.0 | 0.00 | 0.00 | 0.00 | 71 | 1008.9 |
| 20260503003356 | 63 | 315 | 3.0 | 11.0 | 0.00 | 0.00 | 0.00 | 69 | 1009.1 |
| 20260503000335 | 64 | 346 | 4.0 | 13.0 | 0.00 | 0.00 | 0.00 | 67 | 1009.1 |
| 20260502233335 | 65 | 344 | 6.0 | 13.0 | 0.00 | 0.00 | 0.00 | 66 | 1009.4 |
| 20260502230336 | 66 | 334 | 6.0 | 12.0 | 0.00 | 0.00 | 0.00 | 64 | 1009.6 |
| 20260502223338 | 67 | 360 | 6.0 | 12.0 | 0.00 | 0.00 | 0.00 | 64 | 1009.9 |
| 20260502220334 | 68 | 5 | 4.0 | 8.0 | 0.00 | 0.00 | 0.00 | 63 | 1010.4 |
| 20260502213340 | 68 | 355 | 6.0 | 8.0 | 0.00 | 0.00 | 0.00 | 64 | 1010.4 |
| 20260502210350 | 68 | 19 | 5.0 | 11.0 | 0.00 | 0.00 | 0.00 | 64 | 1010.8 |
| 20260502203350 | 67 | 342 | 3.0 | 8.0 | 0.00 | 0.00 | 0.00 | 65 | 1011.0 |
| 20260502200343 | 66 | 297 | 0.0 | 7.0 | 0.00 | 0.00 | 0.00 | 67 | 1011.5 |
| 20260502193341 | 64 | 355 | 2.0 | 6.0 | 0.00 | 0.00 | 0.00 | 69 | 1011.6 |
| 20260502190335 | 63 | 59 | 4.0 | 7.0 | 0.00 | 0.00 | 0.00 | 70 | 1011.9 |